EW5041 Weather Reports


Display with metric or nautical units.
time (UTC)temp
F
wind
direction
speed
MPH
gust
MPH
rain 1hr
in
rain 24hr
in
rain mn
in
humidity
%
barometer
mb
20200705225834 88 230 0.0 2.0 0.00 0.00 0.00 69 1012.3
20200705225337 88 230 0.0 2.0 0.00 0.00 0.00 67 1012.2
20200705224841 88 230 1.0 2.0 0.00 0.00 0.00 65 1012.1
20200705224325 87 230 0.0 2.0 0.00 0.00 0.00 67 1012.2
20200705223833 87 230 1.0 3.0 0.00 0.00 0.00 67 1012.1
20200705223337 87 229 2.0 3.0 0.00 0.00 0.00 67 1012.2
20200705222841 87 229 1.0 2.0 0.00 0.00 0.00 67 1012.1
20200705222325 87 229 0.0 2.0 0.00 0.00 0.00 69 1012.1
20200705221829 86 229 1.0 2.0 0.00 0.00 0.00 70 1012.3
20200705221332 85 229 1.0 2.0 0.00 0.00 0.00 72 1012.3
20200705220838 85 229 0.0 1.0 0.00 0.00 0.00 74 1012.4
20200705220341 84 229 0.0 1.0 0.00 0.00 0.00 78 1012.4
20200705215827 83 229 0.0 1.0 0.00 0.00 0.00 79 1012.5
20200705215329 82 229 0.0 2.0 0.00 0.00 0.00 84 1012.6
20200705214832 82 229 1.0 2.0 0.00 0.00 0.00 85 1012.7
20200705214340 81 229 1.0 2.0 0.00 0.00 0.00 86 1012.8
20200705213829 80 229 0.0 1.0 0.00 0.00 0.00 84 1012.8
20200705213328 80 229 0.0 1.0 0.00 0.00 0.00 84 1012.7
20200705212832 79 229 0.0 2.0 0.00 0.00 0.00 84 1012.8
20200705212336 79 229 0.0 2.0 0.00 0.00 0.00 83 1012.8
20200705211840 78 229 1.0 2.0 0.00 0.00 0.00 84 1012.8
20200705211323 77 229 0.0 1.0 0.00 0.00 0.00 85 1012.8
20200705210827 77 229 0.0 2.0 0.00 0.00 0.00 85 1012.9
20200705210331 77 223 1.0 2.0 0.00 0.00 0.00 85 1013.0
20200705205814 77 223 1.0 2.0 0.00 0.00 0.00 86 1013.1
20200705205333 76 223 0.0 3.0 0.00 0.00 0.00 87 1013.1
20200705204836 76 223 1.0 3.0 0.00 0.00 0.00 88 1013.2
20200705204341 76 223 1.0 2.0 0.00 0.00 0.00 88 1013.2
20200705203828 75 223 0.0 1.0 0.00 0.00 0.00 88 1013.2
20200705203328 75 223 0.0 1.0 0.00 0.00 0.00 87 1013.3
20200705202831 75 223 1.0 2.0 0.00 0.00 0.00 86 1013.3
20200705202336 75 223 0.0 2.0 0.00 0.00 0.00 86 1013.5
20200705201839 75 223 1.0 5.0 0.00 0.00 0.00 85 1013.6
20200705201324 75 223 1.0 5.0 0.00 0.00 0.00 84 1013.7
20200705200827 75 206 1.0 3.0 0.00 0.00 0.00 84 1013.7
20200705200331 75 205 1.0 3.0 0.00 0.00 0.00 83 1013.5
20200705195839 76 205 1.0 5.0 0.00 0.00 0.00 82 1013.6
20200705195323 77 208 3.0 5.0 0.00 0.00 0.00 80 1013.8
20200705194826 77 252 2.0 4.0 0.00 0.00 0.00 79 1013.9
20200705194329 78 317 1.0 3.0 0.00 0.00 0.00 78 1013.6
20200705193825 78 318 1.0 3.0 0.00 0.00 0.00 77 1013.5
20200705193328 79 313 1.0 8.0 0.00 0.00 0.00 78 1013.7
20200705192832 80 13 2.0 8.0 0.00 0.00 0.00 77 1013.7
20200705192336 80 5 3.0 9.0 0.00 0.00 0.00 76 1013.6
20200705191839 82 5 3.0 9.0 0.00 0.00 0.00 75 1013.8
20200705191324 82 360 3.0 6.0 0.00 0.00 0.00 74 1013.9
20200705190833 83 9 2.0 6.0 0.00 0.00 0.00 70 1013.8
20200705190335 84 34 3.0 7.0 0.00 0.00 0.00 69 1013.9
20200705185839 84 69 2.0 4.0 0.00 0.00 0.00 64 1014.0
20200705185325 85 75 1.0 3.0 0.00 0.00 0.00 63 1013.9
20200705184826 85 79 2.0 3.0 0.00 0.00 0.00 63 1013.9
20200705184328 86 88 1.0 8.0 0.00 0.00 0.00 65 1013.9
20200705183810 87 17 3.0 8.0 0.00 0.00 0.00 66 1013.9
20200705183325 88 32 3.0 6.0 0.00 0.00 0.00 64 1013.9
20200705182831 89 5 2.0 6.0 0.00 0.00 0.00 64 1013.8
20200705182332 89 360 1.0 8.0 0.00 0.00 0.00 63 1013.9
20200705181837 90 23 3.0 6.0 0.00 0.00 0.00 61 1014.0
20200705181323 90 349 1.0 9.0 0.00 0.00 0.00 62 1013.9
20200705180836 89 11 1.0 4.0 0.00 0.00 0.00 59 1014.0
20200705180339 89 350 2.0 4.0 0.00 0.00 0.00 58 1014.1
20200705175822 89 253 1.0 3.0 0.00 0.00 0.00 61 1014.0
20200705175326 89 254 1.0 3.0 0.00 0.00 0.00 58 1014.1
20200705174830 89 254 1.0 3.0 0.00 0.00 0.00 60 1014.2
20200705174333 89 234 1.0 3.0 0.00 0.00 0.00 60 1014.2
20200705173838 89 234 1.0 4.0 0.00 0.00 0.00 60 1014.3
20200705173342 89 234 1.0 4.0 0.00 0.00 0.00 59 1014.3
20200705172825 89 260 1.0 4.0 0.00 0.00 0.00 60 1014.2
20200705172333 89 188 3.0 5.0 0.00 0.00 0.00 62 1014.2
20200705171816 88 163 1.0 3.0 0.00 0.00 0.00 62 1014.4
20200705171331 88 165 2.0 4.0 0.00 0.00 0.00 62 1014.3
20200705170833 88 27 1.0 4.0 0.00 0.00 0.00 62 1014.3
20200705170337 87 204 1.0 2.0 0.00 0.00 0.00 62 1014.4
20200705165843 87 204 0.0 4.0 0.00 0.00 0.00 64 1014.5
20200705165325 87 204 1.0 4.0 0.00 0.00 0.00 63 1014.4
20200705164829 87 212 2.0 3.0 0.00 0.00 0.00 61 1014.6
20200705164333 87 211 1.0 3.0 0.00 0.00 0.00 61 1014.7
20200705163838 87 270 1.0 3.0 0.00 0.00 0.00 63 1014.7
20200705163324 87 270 1.0 3.0 0.00 0.00 0.00 61 1014.7
20200705162838 87 275 1.0 4.0 0.00 0.00 0.00 63 1014.8
20200705162346 87 275 2.0 4.0 0.00 0.00 0.00 63 1014.7
20200705161826 87 343 2.0 5.0 0.00 0.00 0.00 62 1014.7
20200705161329 87 240 3.0 5.0 0.00 0.00 0.00 63 1014.7
20200705160831 87 225 0.0 3.0 0.00 0.00 0.00 63 1014.8
20200705160326 86 225 1.0 4.0 0.00 0.00 0.00 63 1014.8
20200705155829 86 225 2.0 4.0 0.00 0.00 0.00 62 1014.8
20200705155334 86 254 3.0 4.0 0.00 0.00 0.00 63 1014.8
20200705154838 86 313 2.0 4.0 0.00 0.00 0.00 66 1014.8
20200705154324 85 191 1.0 4.0 0.00 0.00 0.00 68 1014.8
20200705153841 85 191 0.0 4.0 0.00 0.00 0.00 69 1014.9
20200705153321 84 191 1.0 3.0 0.00 0.00 0.00 68 1014.9
20200705152814 84 179 1.0 3.0 0.00 0.00 0.00 69 1014.9
20200705152330 84 179 1.0 2.0 0.00 0.00 0.00 69 1014.9
20200705151833 84 181 1.0 4.0 0.00 0.00 0.00 69 1014.9
20200705151336 83 181 2.0 4.0 0.00 0.00 0.00 70 1014.7
20200705150841 83 181 1.0 3.0 0.00 0.00 0.00 73 1014.9
20200705150323 83 181 1.0 3.0 0.00 0.00 0.00 70 1014.8
20200705145826 82 181 0.0 5.0 0.00 0.00 0.00 72 1014.9
20200705145334 82 184 2.0 5.0 0.00 0.00 0.00 73 1014.9
20200705144837 82 163 1.0 2.0 0.00 0.00 0.00 72 1014.9
20200705144342 82 163 1.0 2.0 0.00 0.00 0.00 75 1014.9
20200705143824 81 161 0.0 3.0 0.00 0.00 0.00 72 1014.7
20200705143328 81 161 2.0 3.0 0.00 0.00 0.00 74 1014.8
20200705142830 81 160 1.0 5.0 0.00 0.00 0.00 74 1014.7
20200705142332 80 160 1.0 5.0 0.00 0.00 0.00 75 1014.7
20200705141837 80 160 1.0 3.0 0.00 0.00 0.00 75 1014.7
20200705141342 80 159 0.0 3.0 0.00 0.00 0.00 75 1014.8
20200705140825 79 159 1.0 3.0 0.00 0.00 0.00 76 1014.8
20200705140328 79 167 1.0 4.0 0.00 0.00 0.00 77 1014.8
20200705135836 79 167 1.0 5.0 0.00 0.00 0.00 76 1014.9
20200705135342 79 167 2.0 5.0 0.00 0.00 0.00 76 1014.9
20200705134824 78 184 2.0 4.0 0.00 0.00 0.00 77 1014.9
20200705134327 78 158 1.0 3.0 0.00 0.00 0.00 77 1014.9
20200705133833 78 158 1.0 2.0 0.00 0.00 0.00 78 1014.9
20200705133333 77 159 0.0 3.0 0.00 0.00 0.00 80 1014.9
20200705132838 77 160 1.0 3.0 0.00 0.00 0.00 79 1014.9
20200705132323 77 159 1.0 3.0 0.00 0.00 0.00 79 1014.9
20200705131829 76 158 1.0 3.0 0.00 0.00 0.00 81 1014.9
20200705131334 76 36 0.0 3.0 0.00 0.00 0.00 81 1014.8
20200705130824 76 36 1.0 3.0 0.00 0.00 0.00 82 1014.8
20200705130331 75 140 0.0 2.0 0.00 0.00 0.00 82 1014.8
20200705125817 75 140 0.0 2.0 0.00 0.00 0.00 83 1014.7
20200705125334 75 140 1.0 2.0 0.00 0.00 0.00 84 1014.7
20200705124840 75 140 0.0 2.0 0.00 0.00 0.00 85 1014.6
20200705124325 74 140 0.0 3.0 0.00 0.00 0.00 85 1014.7
20200705123834 74 140 1.0 3.0 0.00 0.00 0.00 86 1014.6
20200705123337 73 25 1.0 1.0 0.00 0.00 0.00 87 1014.6
20200705122823 73 25 0.0 2.0 0.00 0.00 0.00 89 1014.5
20200705122330 73 25 0.0 2.0 0.00 0.00 0.00 90 1014.5
20200705121818 72 25 0.0 2.0 0.00 0.00 0.00 92 1014.4
20200705121314 72 25 1.0 2.0 0.00 0.00 0.00 93 1014.5
20200705120831 72 25 0.0 1.0 0.00 0.00 0.00 94 1014.4
20200705120339 71 25 0.0 1.0 0.00 0.00 0.00 95 1014.4
20200705115824 71 25 0.0 1.0 0.00 0.00 0.00 95 1014.4
20200705115341 71 25 0.0 1.0 0.00 0.00 0.00 95 1014.4
20200705114826 70 25 0.0 1.0 0.00 0.00 0.00 96 1014.4
20200705114332 70 25 0.0 1.0 0.00 0.00 0.00 96 1014.4
20200705113822 70 25 0.0 2.0 0.00 0.00 0.00 96 1014.3
20200705113328 70 25 0.0 2.0 0.00 0.00 0.00 96 1014.3
20200705112836 70 25 0.0 1.0 0.00 0.00 0.00 96 1014.3
20200705112340 70 25 0.0 0.0 0.00 0.00 0.00 96 1014.3
20200705111826 69 25 0.0 0.0 0.00 0.00 0.00 96 1014.2
20200705111333 69 25 0.0 0.0 0.00 0.00 0.00 96 1014.2
20200705110838 69 25 0.0 0.0 0.00 0.00 0.00 96 1014.3
20200705110323 69 25 0.0 0.0 0.00 0.00 0.00 96 1014.2
20200705105829 69 25 0.0 0.0 0.00 0.00 0.00 95 1014.2
20200705105335 69 25 0.0 0.0 0.00 0.00 0.00 95 1014.0
20200705104826 69 25 0.0 0.0 0.00 0.00 0.00 96 1014.1
20200705104331 70 25 0.0 1.0 0.00 0.00 0.00 96 1014.1
20200705103838 70 25 0.0 1.0 0.00 0.00 0.00 96 1014.1
20200705103323 69 25 0.0 0.0 0.00 0.00 0.00 95 1014.0
20200705102829 70 25 0.0 1.0 0.00 0.00 0.00 95 1014.0
20200705102335 69 25 0.0 1.0 0.00 0.00 0.00 95 1014.1
20200705101841 69 25 0.0 0.0 0.00 0.00 0.00 95 1014.0
20200705101327 69 25 0.0 0.0 0.00 0.00 0.00 95 1014.0
20200705100833 69 25 0.0 1.0 0.00 0.00 0.00 95 1013.9
20200705100341 69 25 0.0 1.0 0.00 0.00 0.00 95 1013.9
20200705095829 69 25 0.0 0.0 0.00 0.00 0.00 95 1013.8
20200705095334 69 25 0.0 1.0 0.00 0.00 0.00 95 1013.8
20200705094839 69 25 0.0 1.0 0.00 0.00 0.00 95 1013.8
20200705094326 69 25 0.0 0.0 0.00 0.00 0.00 95 1013.8
20200705093831 69 25 0.0 0.0 0.00 0.00 0.00 95 1013.8
20200705093337 69 25 0.0 0.0 0.00 0.00 0.00 95 1013.7
20200705092823 70 25 0.0 0.0 0.00 0.00 0.00 95 1013.8
20200705092329 70 25 0.0 1.0 0.00 0.00 0.00 95 1013.8
20200705091835 70 25 0.0 1.0 0.00 0.00 0.00 95 1013.7
20200705091341 70 25 0.0 1.0 0.00 0.00 0.00 94 1013.8
20200705090833 70 25 0.0 1.0 0.00 0.00 0.00 94 1013.8
20200705090338 70 25 0.0 0.0 0.00 0.00 0.00 94 1013.7
20200705085822 70 25 0.0 0.0 0.00 0.00 0.00 94 1013.8
20200705085339 70 25 0.0 0.0 0.00 0.00 0.00 94 1013.8
20200705084827 70 25 0.0 0.0 0.00 0.00 0.00 94 1013.7
20200705084333 70 25 0.0 0.0 0.00 0.00 0.00 94 1013.7
20200705083838 70 25 0.0 0.0 0.00 0.00 0.00 94 1013.6
20200705083324 70 25 0.0 0.0 0.00 0.00 0.00 93 1013.5
20200705082831 70 25 0.0 0.0 0.00 0.00 0.00 93 1013.5
20200705082338 70 25 0.0 0.0 0.00 0.00 0.00 93 1013.5
20200705081826 70 25 0.0 1.0 0.00 0.00 0.00 93 1013.5
20200705081332 70 25 0.0 1.0 0.00 0.00 0.00 93 1013.5
20200705080838 70 25 0.0 1.0 0.00 0.00 0.00 93 1013.5
20200705080325 70 25 0.0 1.0 0.00 0.00 0.00 93 1013.6
20200705075830 70 25 0.0 1.0 0.00 0.00 0.00 93 1013.5
20200705075339 71 25 0.0 1.0 0.00 0.00 0.00 93 1013.5
20200705074822 71 25 0.0 0.0 0.00 0.00 0.00 92 1013.4
20200705074329 71 25 0.0 0.0 0.00 0.00 0.00 92 1013.3
20200705073835 71 25 0.0 0.0 0.00 0.00 0.00 92 1013.4
20200705073323 71 25 0.0 0.0 0.00 0.00 0.00 92 1013.5
20200705072829 71 25 0.0 0.0 0.00 0.00 0.00 92 1013.5
20200705072336 71 25 0.0 0.0 0.00 0.00 0.00 93 1013.5
20200705071820 71 25 0.0 0.0 0.00 0.00 0.00 93 1013.5
20200705071337 71 25 0.0 0.0 0.00 0.00 0.00 92 1013.7
20200705070823 71 25 0.0 1.0 0.00 0.00 0.00 92 1013.5
20200705070336 71 25 0.0 1.0 0.00 0.00 0.00 92 1013.6
20200705065815 71 25 0.0 1.0 0.00 0.00 0.00 92 1013.6
20200705065331 71 25 0.0 1.0 0.00 0.00 0.00 92 1013.7
20200705064837 71 25 0.0 1.0 0.00 0.00 0.00 92 1013.5
20200705064327 71 25 0.0 0.0 0.00 0.00 0.00 91 1013.6
20200705063833 71 25 0.0 0.0 0.00 0.00 0.00 91 1013.5
20200705063340 71 25 0.0 0.0 0.00 0.00 0.00 91 1013.4
20200705062825 71 25 0.0 0.0 0.00 0.00 0.00 90 1013.5
20200705062331 71 25 0.0 1.0 0.00 0.00 0.00 90 1013.5
20200705061837 71 25 0.0 1.0 0.00 0.00 0.00 90 1013.4
20200705061323 71 25 0.0 0.0 0.00 0.00 0.00 90 1013.4
20200705060830 72 25 0.0 1.0 0.00 0.00 0.00 89 1013.5
20200705060336 72 25 0.0 1.0 0.00 0.00 0.00 89 1013.5
20200705055824 72 25 1.0 1.0 0.00 0.00 0.00 89 1013.6
20200705055341 72 25 0.0 0.0 0.00 0.00 0.00 88 1013.7
20200705054831 72 25 0.0 0.0 0.00 0.00 0.00 88 1013.9
20200705054335 72 25 0.0 1.0 0.00 0.00 0.00 88 1013.9
20200705053839 72 25 0.0 1.0 0.00 0.00 0.00 87 1013.9
20200705053325 72 25 0.0 1.0 0.00 0.00 0.00 87 1013.9
20200705052831 72 25 0.0 0.0 0.00 0.00 0.00 86 1013.8
20200705052339 73 25 0.0 0.0 0.00 0.00 0.00 86 1013.8
20200705051824 73 25 0.0 0.0 0.00 0.00 0.00 86 1013.7
20200705051329 73 25 0.0 0.0 0.00 0.00 0.00 86 1013.8
20200705050839 73 25 0.0 0.0 0.00 0.00 0.00 86 1013.8
20200705050325 73 25 0.0 1.0 0.00 0.00 0.00 86 1013.8
20200705045832 73 25 0.0 1.0 0.00 0.00 0.00 86 1013.8
20200705045327 73 25 0.0 1.0 0.00 0.00 0.00 86 1013.9
20200705044833 73 25 0.0 1.0 0.00 0.00 0.00 86 1013.9
20200705044339 73 25 0.0 1.0 0.00 0.00 0.00 86 1013.9
20200705043826 74 25 0.0 1.0 0.00 0.00 0.00 86 1013.9
20200705043330 74 25 1.0 1.0 0.00 0.00 0.00 86 1013.9
20200705042827 74 25 0.0 0.0 0.00 0.00 0.00 85 1013.8
20200705042337 74 25 0.0 0.0 0.00 0.00 0.00 85 1013.8
20200705041823 75 25 0.0 0.0 0.00 0.00 0.00 85 1013.7
20200705041329 75 25 0.0 0.0 0.00 0.00 0.00 84 1013.8
20200705040838 75 25 0.0 0.0 0.00 0.00 0.00 84 1013.9
20200705040341 75 25 0.0 0.0 0.00 0.00 0.00 83 1013.9
20200705035827 75 25 0.0 1.0 0.00 0.00 0.00 83 1013.9
20200705035333 75 25 0.0 1.0 0.00 0.00 0.00 83 1013.7
20200705034839 76 25 0.0 1.0 0.00 0.00 0.00 82 1013.7
20200705034325 76 25 0.0 0.0 0.00 0.00 0.00 82 1013.5
20200705033831 76 25 0.0 0.0 0.00 0.00 0.00 81 1013.5
20200705033343 76 25 0.0 0.0 0.00 0.00 0.00 81 1013.7
20200705032827 76 25 0.0 0.0 0.00 0.00 0.00 80 1013.6
20200705032335 77 25 0.0 1.0 0.00 0.00 0.00 80 1013.7
20200705031838 77 25 0.0 1.0 0.00 0.00 0.00 80 1013.6
20200705031324 77 25 0.0 1.0 0.00 0.00 0.00 79 1013.8
20200705030830 77 25 0.0 1.0 0.00 0.00 0.00 79 1013.8
20200705030336 77 25 0.0 1.0 0.00 0.00 0.00 79 1013.8
20200705025821 77 25 0.0 1.0 0.00 0.00 0.00 78 1013.7
20200705025338 77 25 0.0 1.0 0.00 0.00 0.00 78 1013.8
20200705024828 77 25 0.0 2.0 0.00 0.00 0.00 78 1013.8
20200705024334 78 25 0.0 2.0 0.00 0.00 0.00 77 1013.9
20200705023840 78 17 0.0 1.0 0.00 0.00 0.00 77 1013.9
20200705023325 78 17 0.0 1.0 0.00 0.00 0.00 76 1013.9
20200705022824 78 17 0.0 1.0 0.00 0.00 0.00 75 1013.9
20200705022331 78 17 0.0 1.0 0.00 0.00 0.00 75 1013.9
20200705021825 78 17 0.0 1.0 0.00 0.00 0.00 74 1013.8
20200705021331 79 17 0.0 1.0 0.00 0.00 0.00 74 1013.8
20200705020836 79 17 0.0 1.0 0.00 0.00 0.00 73 1013.8
20200705020326 79 17 0.0 6.0 0.00 0.00 0.00 72 1013.8
20200705015811 79 17 1.0 6.0 0.00 0.00 0.00 72 1013.8
20200705015328 80 16 1.0 6.0 0.00 0.00 0.00 71 1013.9
20200705014834 80 22 3.0 8.0 0.00 0.00 0.00 70 1013.9
20200705014340 80 342 3.0 8.0 0.00 0.00 0.00 70 1013.9
20200705013826 80 9 2.0 5.0 0.00 0.00 0.00 70 1013.7
20200705013332 80 13 1.0 5.0 0.00 0.00 0.00 70 1013.7
20200705012838 81 21 0.0 3.0 0.00 0.00 0.00 69 1013.7
20200705012324 81 21 0.0 3.0 0.00 0.00 0.00 69 1013.6
20200705011832 81 22 1.0 2.0 0.00 0.00 0.00 68 1013.5
20200705011340 82 22 1.0 2.0 0.00 0.00 0.00 69 1013.7
20200705010826 82 22 0.0 2.0 0.00 0.00 0.00 68 1013.6
20200705010332 82 22 0.0 1.0 0.00 0.00 0.00 68 1013.6
20200705005837 82 22 0.0 2.0 0.00 0.00 0.00 68 1013.4
20200705005323 83 21 1.0 3.0 0.00 0.00 0.00 68 1013.4
20200705004830 83 19 1.0 2.0 0.00 0.00 0.00 68 1013.4
20200705004335 84 19 1.0 2.0 0.00 0.00 0.00 68 1013.4
20200705003820 84 19 0.0 2.0 0.00 0.00 0.00 67 1013.5
20200705003337 84 19 0.0 6.0 0.00 0.00 0.00 66 1013.4
20200705002827 84 20 3.0 8.0 0.00 0.00 0.00 65 1013.3
20200705002333 84 30 2.0 10.0 0.00 0.00 0.00 66 1013.2
20200705001840 84 360 5.0 10.0 0.00 0.00 0.00 66 1013.2
20200705001325 84 16 1.0 5.0 0.00 0.00 0.00 67 1013.2
20200705000830 84 12 2.0 5.0 0.00 0.00 0.00 67 1013.1
20200705000336 84 23 1.0 4.0 0.00 0.00 0.00 66 1013.1
20200704235841 84 24 1.0 4.0 0.00 0.00 0.00 66 1013.1
20200704235349 84 5 1.0 4.0 0.00 0.00 0.00 66 1013.1
20200704234834 84 15 0.0 5.0 0.00 0.00 0.00 66 1013.2
20200704234340 84 19 2.0 5.0 0.00 0.00 0.00 66 1013.1
20200704233830 84 21 1.0 6.0 0.00 0.00 0.00 68 1013.1
20200704233336 84 22 2.0 8.0 0.00 0.00 0.00 68 1013.1
20200704232822 84 22 1.0 3.0 0.00 0.00 0.00 71 1013.2
20200704232328 84 22 1.0 2.0 0.00 0.00 0.00 72 1013.0
20200704231813 84 23 1.0 2.0 0.00 0.00 0.00 71 1013.0
20200704231330 84 23 0.0 1.0 0.00 0.00 0.00 71 1013.1
20200704230836 84 23 0.0 3.0 0.00 0.00 0.00 71 1013.0
20200704230323 84 23 1.0 3.0 0.00 0.00 0.00 70 1013.0